Date,TemperatureHighF,TemperatureAvgF,TemperatureLowF,DewpointHighF,DewpointAvgF,DewpointLowF,HumidityHigh,HumidityAvg,HumidityLow,PressureMaxIn,PressureMinIn,WindSpeedMaxMPH,WindSpeedAvgMPH,GustSpeedMaxMPH,PrecipitationSumIn
2013-12-1,57.7,37.6,29.2,39.0,16.9,-99.9,94,63,42,30.39,30.05,2,-126,0,0.00
2013-12-2,59.0,38.7,37.0,45.0,15.4,-99.9,91,64,58,30.04,29.83,1,-177,0,0.02
2013-12-3,54.8,45.6,34.1,48.0,41.7,33.0,96,86,72,30.01,29.89,0,0,0,0.00
2013-12-4,62.8,55.8,49.5,58.0,53.3,48.0,95,91,83,30.10,30.00,0,0,0,0.00
2013-12-5,66.0,61.2,55.5,64.0,60.0,54.0,98,96,93,30.14,30.04,1,0,0,0.01
2013-12-6,77.3,70.0,65.0,66.0,64.4,62.0,95,83,66,30.07,29.96,8,1,0,0.00
2013-12-7,68.9,49.2,43.2,65.0,44.7,36.0,94,84,73,30.47,29.99,3,0,0,0.12
2013-12-8,43.1,36.4,34.0,36.0,32.6,30.0,96,87,67,30.48,30.32,4,0,0,0.08
2013-12-9,44.7,39.5,34.9,44.0,38.7,34.0,97,97,96,30.31,30.08,1,0,0,0.17
2013-12-10,46.5,43.6,30.2,45.0,42.4,28.0,97,95,87,30.34,29.94,3,0,0,0.32
2013-12-11,48.3,35.6,25.3,34.0,28.3,24.0,96,78,43,30.48,30.31,2,0,0,0.00
2013-12-12,43.4,35.0,27.8,30.0,23.9,17.0,94,67,35,30.45,30.30,2,0,0,0.00
2013-12-13,51.0,36.0,24.2,33.0,25.2,21.0,91,69,33,30.42,30.29,1,0,0,0.00
2013-12-14,47.3,40.9,37.8,42.0,37.0,30.0,96,86,55,30.33,29.80,2,0,0,0.85
2013-12-15,52.9,43.3,34.5,44.0,37.0,30.0,97,80,58,30.09,29.72,4,0,0,0.02
2013-12-16,54.0,40.2,29.3,38.0,33.3,28.0,94,78,51,30.20,30.09,4,0,0,0.00
2013-12-17,59.3,46.3,32.6,41.0,37.0,31.0,95,73,48,30.14,29.89,2,0,0,0.00
2013-12-18,49.0,39.8,30.9,39.0,26.7,19.0,88,62,32,30.31,30.06,2,0,0,0.00
2013-12-19,61.7,44.3,28.4,33.0,28.3,25.0,91,59,28,30.34,30.23,2,0,0,0.00
2013-12-20,65.2,52.6,39.2,54.0,44.7,33.0,89,75,60,30.26,30.12,2,0,0,0.00
2013-12-21,72.4,60.8,49.2,66.0,56.2,47.0,93,85,69,30.16,30.04,4,0,0,0.06
2013-12-22,76.6,70.2,64.0,68.0,65.5,62.0,96,85,68,30.10,30.01,3,0,0,0.32
2013-12-23,65.4,59.8,46.5,65.0,58.2,40.0,97,94,77,30.17,30.00,2,0,0,1.25
2013-12-24,46.3,41.3,30.6,39.0,29.9,16.0,79,65,47,30.48,30.15,3,0,0,0.00
2013-12-25,38.8,30.3,24.8,21.0,16.4,13.0,80,58,36,30.58,30.43,2,0,0,0.00
2013-12-26,52.4,36.7,25.4,31.0,27.1,21.0,89,71,36,30.43,30.27,2,0,0,0.00
2013-12-27,51.4,36.9,26.5,29.0,25.8,22.0,91,68,33,30.49,30.39,1,0,0,0.00
2013-12-28,57.3,40.8,26.1,38.0,29.9,24.0,93,69,33,30.43,30.18,1,0,0,0.00
2013-12-29,53.8,47.4,42.4,53.0,45.3,38.0,97,92,71,30.18,29.72,4,0,0,1.78
2013-12-30,53.5,44.7,35.4,47.0,39.6,34.0,98,83,66,30.15,29.94,1,0,0,0.00
2013-12-31,50.7,41.7,32.5,37.0,32.3,25.0,95,72,37,30.37,30.14,6,0,0,0.01